Year,Month,Day,Hour,Minute,Value (Times are PST for temperature in C)
2009,07,17,00,00,18.20
2009,07,17,00,01,18.20
2009,07,17,00,02,18.10
2009,07,17,00,03,18.10
2009,07,17,00,04,18.10
2009,07,17,00,05,18.10
2009,07,17,00,06,18.10
2009,07,17,00,07,18.10
2009,07,17,00,08,18.10
2009,07,17,00,09,18.10
2009,07,17,00,10,18.00
2009,07,17,00,11,17.90
2009,07,17,00,12,17.90
2009,07,17,00,13,17.90
2009,07,17,00,14,17.90
2009,07,17,00,15,17.90
2009,07,17,00,16,17.90
2009,07,17,00,17,17.90
2009,07,17,00,18,17.90
2009,07,17,00,19,17.90
2009,07,17,00,20,17.90
2009,07,17,00,21,17.90
2009,07,17,00,22,17.90
2009,07,17,00,23,17.90
2009,07,17,00,24,17.90
2009,07,17,00,25,17.90
2009,07,17,00,26,17.90
2009,07,17,00,27,17.90
2009,07,17,00,28,17.90
2009,07,17,00,29,17.90
2009,07,17,00,30,17.90
2009,07,17,00,31,17.90
2009,07,17,00,32,17.90
2009,07,17,00,33,17.90
2009,07,17,00,34,17.90
2009,07,17,00,35,17.90
2009,07,17,00,36,17.90
2009,07,17,00,37,17.90
2009,07,17,00,38,17.90
2009,07,17,00,39,17.90
2009,07,17,00,40,17.90
2009,07,17,00,41,17.90
2009,07,17,00,42,17.90
2009,07,17,00,43,17.90
2009,07,17,00,44,17.90
2009,07,17,00,45,17.90
2009,07,17,00,46,17.90
2009,07,17,00,47,17.90
2009,07,17,00,48,17.90
2009,07,17,00,49,17.90
2009,07,17,00,50,17.90
2009,07,17,00,51,17.90
2009,07,17,00,52,17.90
2009,07,17,00,53,17.90
2009,07,17,00,54,17.90
2009,07,17,00,55,17.90
2009,07,17,00,56,17.90
2009,07,17,00,57,17.90
2009,07,17,00,58,17.90
2009,07,17,00,59,17.90
2009,07,17,01,00,17.90
2009,07,17,01,01,17.90
2009,07,17,01,02,17.90
2009,07,17,01,03,17.90
2009,07,17,01,04,17.90
2009,07,17,01,05,17.90
2009,07,17,01,06,17.90
2009,07,17,01,07,17.90
2009,07,17,01,08,17.90
2009,07,17,01,09,17.90
2009,07,17,01,10,17.90
2009,07,17,01,11,17.90
2009,07,17,01,12,17.90
2009,07,17,01,13,17.90
2009,07,17,01,14,17.90
2009,07,17,01,15,17.90
2009,07,17,01,16,17.90
2009,07,17,01,17,17.80
2009,07,17,01,18,17.80
2009,07,17,01,19,17.80
2009,07,17,01,20,17.80
2009,07,17,01,21,17.80
2009,07,17,01,22,17.80
2009,07,17,01,23,17.70
2009,07,17,01,24,17.70
2009,07,17,01,25,17.70
2009,07,17,01,26,17.70
2009,07,17,01,27,17.70
2009,07,17,01,28,17.60
2009,07,17,01,29,17.60
2009,07,17,01,30,17.60
2009,07,17,01,31,17.60
2009,07,17,01,32,17.50
2009,07,17,01,33,17.50
2009,07,17,01,34,17.50
2009,07,17,01,35,17.50
2009,07,17,01,36,17.50
2009,07,17,01,37,17.40
2009,07,17,01,38,17.40
2009,07,17,01,39,17.40
2009,07,17,01,40,17.30
2009,07,17,01,41,17.30
2009,07,17,01,42,17.30
2009,07,17,01,43,17.30
2009,07,17,01,44,17.30
2009,07,17,01,45,17.30
2009,07,17,01,46,17.30
2009,07,17,01,47,17.30
2009,07,17,01,48,17.30
2009,07,17,01,49,17.30
2009,07,17,01,50,17.30
2009,07,17,01,51,17.30
2009,07,17,01,52,17.30
2009,07,17,01,53,17.40
2009,07,17,01,54,17.40
2009,07,17,01,55,17.50
2009,07,17,01,56,17.50
2009,07,17,01,57,17.50
2009,07,17,01,58,17.60
2009,07,17,01,59,17.60
2009,07,17,02,00,17.70
2009,07,17,02,01,17.70
2009,07,17,02,02,17.70
2009,07,17,02,03,17.70
2009,07,17,02,04,17.70
2009,07,17,02,05,17.80
2009,07,17,02,06,17.80
2009,07,17,02,07,17.80
2009,07,17,02,08,17.80
2009,07,17,02,09,17.80
2009,07,17,02,10,17.80
2009,07,17,02,11,17.80
2009,07,17,02,12,17.80
2009,07,17,02,13,17.80
2009,07,17,02,14,17.80
2009,07,17,02,15,17.70
2009,07,17,02,16,17.70
2009,07,17,02,17,17.70
2009,07,17,02,18,17.70
2009,07,17,02,19,17.70
2009,07,17,02,20,17.70
2009,07,17,02,21,17.60
2009,07,17,02,22,17.60
2009,07,17,02,23,17.60
2009,07,17,02,24,17.60
2009,07,17,02,25,17.60
2009,07,17,02,26,17.50
2009,07,17,02,27,17.50
2009,07,17,02,28,17.50
2009,07,17,02,29,17.50
2009,07,17,02,30,17.40
2009,07,17,02,31,17.40
2009,07,17,02,32,17.40
2009,07,17,02,33,17.30
2009,07,17,02,34,17.30
2009,07,17,02,35,17.30
2009,07,17,02,36,17.30
2009,07,17,02,37,17.30
2009,07,17,02,38,17.20
2009,07,17,02,39,17.20
2009,07,17,02,40,17.20
2009,07,17,02,41,17.10
2009,07,17,02,42,17.10
2009,07,17,02,43,17.10
2009,07,17,02,44,17.00
2009,07,17,02,45,17.00
2009,07,17,02,46,17.00
2009,07,17,02,47,17.00
2009,07,17,02,48,16.90
2009,07,17,02,49,16.90
2009,07,17,02,50,16.90
2009,07,17,02,51,16.90
2009,07,17,02,52,16.80
2009,07,17,02,53,16.80
2009,07,17,02,54,16.80
2009,07,17,02,55,16.70
2009,07,17,02,56,16.70
2009,07,17,02,57,16.70
2009,07,17,02,58,16.70
2009,07,17,02,59,16.70
2009,07,17,03,00,16.70
2009,07,17,03,01,16.70
2009,07,17,03,02,16.70
2009,07,17,03,03,16.60
2009,07,17,03,04,16.60
2009,07,17,03,05,16.60
2009,07,17,03,06,16.60
2009,07,17,03,07,16.40
2009,07,17,03,08,16.40
2009,07,17,03,09,16.40
2009,07,17,03,10,16.40
2009,07,17,03,11,16.40
2009,07,17,03,12,16.40
2009,07,17,03,13,16.40
2009,07,17,03,14,16.40
2009,07,17,03,15,16.40
2009,07,17,03,16,16.40
2009,07,17,03,17,16.40
2009,07,17,03,18,16.40
2009,07,17,03,19,16.40
2009,07,17,03,20,16.30
2009,07,17,03,21,16.30
2009,07,17,03,22,16.30
2009,07,17,03,23,16.30
2009,07,17,03,24,16.30
2009,07,17,03,25,16.30
2009,07,17,03,26,16.30
2009,07,17,03,27,16.20
2009,07,17,03,28,16.20
2009,07,17,03,29,16.20
2009,07,17,03,30,16.20
2009,07,17,03,31,16.20
2009,07,17,03,32,16.20
2009,07,17,03,33,16.20
2009,07,17,03,34,16.20
2009,07,17,03,35,16.20
2009,07,17,03,36,16.20
2009,07,17,03,37,16.20
2009,07,17,03,38,16.20
2009,07,17,03,39,16.20
2009,07,17,03,40,16.20
2009,07,17,03,41,16.20
2009,07,17,03,42,16.30
2009,07,17,03,43,16.30
2009,07,17,03,44,16.30
2009,07,17,03,45,16.30
2009,07,17,03,46,16.30
2009,07,17,03,47,16.30
2009,07,17,03,48,16.40
2009,07,17,03,49,16.40
2009,07,17,03,50,16.40
2009,07,17,03,51,16.40
2009,07,17,03,52,16.40
2009,07,17,03,53,16.40
2009,07,17,03,54,16.40
2009,07,17,03,55,16.40
2009,07,17,03,56,16.40
2009,07,17,03,57,16.50
2009,07,17,03,58,16.60
2009,07,17,03,59,16.60
2009,07,17,04,00,16.60
2009,07,17,04,01,16.60
2009,07,17,04,02,16.60
2009,07,17,04,03,16.60
2009,07,17,04,04,16.60
2009,07,17,04,05,16.70
2009,07,17,04,06,16.60
2009,07,17,04,07,16.60
2009,07,17,04,08,16.60
2009,07,17,04,09,16.60
2009,07,17,04,10,16.60
2009,07,17,04,11,16.60
2009,07,17,04,12,16.40
2009,07,17,04,13,16.40
2009,07,17,04,14,16.40
2009,07,17,04,15,16.30
2009,07,17,04,16,16.20
2009,07,17,04,17,16.20
2009,07,17,04,18,16.10
2009,07,17,04,19,16.00
2009,07,17,04,20,15.90
2009,07,17,04,21,15.80
2009,07,17,04,22,15.80
2009,07,17,04,23,15.70
2009,07,17,04,24,15.60
2009,07,17,04,25,15.60
2009,07,17,04,26,15.50
2009,07,17,04,27,15.40
2009,07,17,04,28,15.30
2009,07,17,04,29,15.30
2009,07,17,04,30,15.30
2009,07,17,04,31,15.20
2009,07,17,04,32,15.20
2009,07,17,04,33,15.10
2009,07,17,04,34,15.10
2009,07,17,04,35,15.10
2009,07,17,04,36,15.00
2009,07,17,04,37,15.00
2009,07,17,04,38,15.00
2009,07,17,04,39,15.00
2009,07,17,04,40,14.90
2009,07,17,04,41,14.90
2009,07,17,04,42,14.90
2009,07,17,04,43,14.90
2009,07,17,04,44,14.90
2009,07,17,04,45,14.80
2009,07,17,04,46,14.80
2009,07,17,04,47,14.80
2009,07,17,04,48,14.80
2009,07,17,04,49,14.80
2009,07,17,04,50,14.80
2009,07,17,04,51,14.80
2009,07,17,04,52,14.80
2009,07,17,04,53,14.80
2009,07,17,04,54,14.90
2009,07,17,04,55,14.90
2009,07,17,04,56,14.90
2009,07,17,04,57,14.90
2009,07,17,04,58,14.90
2009,07,17,04,59,14.90
2009,07,17,05,00,14.90
2009,07,17,05,01,14.90
2009,07,17,05,02,14.90
2009,07,17,05,03,14.90
2009,07,17,05,04,14.90
2009,07,17,05,05,15.00
2009,07,17,05,06,15.00
2009,07,17,05,07,15.00
2009,07,17,05,08,15.00
2009,07,17,05,09,15.00
2009,07,17,05,10,15.00
2009,07,17,05,11,15.00
2009,07,17,05,12,14.90
2009,07,17,05,13,14.90
2009,07,17,05,14,14.90
2009,07,17,05,15,14.90
2009,07,17,05,16,14.90
2009,07,17,05,17,14.80
2009,07,17,05,18,14.80
2009,07,17,05,19,14.80
2009,07,17,05,20,14.80
2009,07,17,05,21,14.80
2009,07,17,05,22,14.80
2009,07,17,05,23,14.80
2009,07,17,05,24,14.70
2009,07,17,05,25,14.70
2009,07,17,05,26,14.70
2009,07,17,05,27,14.70
2009,07,17,05,28,14.70
2009,07,17,05,29,14.70
2009,07,17,05,30,14.60
2009,07,17,05,31,14.60
2009,07,17,05,32,14.60
2009,07,17,05,33,14.60
2009,07,17,05,34,14.60
2009,07,17,05,35,14.60
2009,07,17,05,36,14.50
2009,07,17,05,37,14.50
2009,07,17,05,38,14.50
2009,07,17,05,39,14.50
2009,07,17,05,40,14.50
2009,07,17,05,41,14.50
2009,07,17,05,42,14.40
2009,07,17,05,43,14.40
2009,07,17,05,44,14.40
2009,07,17,05,45,14.40
2009,07,17,05,46,14.40
2009,07,17,05,47,14.40
2009,07,17,05,48,14.40
2009,07,17,05,49,14.40
2009,07,17,05,50,14.40
2009,07,17,05,51,14.40
2009,07,17,05,52,14.40
2009,07,17,05,53,14.40
2009,07,17,05,54,14.40
2009,07,17,05,55,14.40
2009,07,17,05,56,14.30
2009,07,17,05,57,14.30
2009,07,17,05,58,14.30
2009,07,17,05,59,14.30
2009,07,17,06,00,14.30
2009,07,17,06,01,14.30
2009,07,17,06,02,14.30
2009,07,17,06,03,14.30
2009,07,17,06,04,14.30
2009,07,17,06,05,14.30
2009,07,17,06,06,14.30
2009,07,17,06,07,14.30
2009,07,17,06,08,14.30
2009,07,17,06,09,14.30
2009,07,17,06,10,14.30
2009,07,17,06,11,14.30
2009,07,17,06,12,14.30
2009,07,17,06,13,14.30
2009,07,17,06,14,14.30
2009,07,17,06,15,14.30
2009,07,17,06,16,14.30
2009,07,17,06,17,14.30
2009,07,17,06,18,14.30
2009,07,17,06,19,14.30
2009,07,17,06,20,14.30
2009,07,17,06,21,14.30
2009,07,17,06,22,14.30
2009,07,17,06,23,14.30
2009,07,17,06,24,14.30
2009,07,17,06,25,14.30
2009,07,17,06,26,14.30
2009,07,17,06,27,14.30
2009,07,17,06,28,14.40
2009,07,17,06,29,14.40
2009,07,17,06,30,14.40
2009,07,17,06,31,14.40
2009,07,17,06,32,14.40
2009,07,17,06,33,14.50
2009,07,17,06,34,14.50
2009,07,17,06,35,14.50
2009,07,17,06,36,14.50
2009,07,17,06,37,14.50
2009,07,17,06,38,14.60
2009,07,17,06,39,14.60
2009,07,17,06,40,14.60
2009,07,17,06,41,14.60
2009,07,17,06,42,14.70
2009,07,17,06,43,14.70
2009,07,17,06,44,14.70
2009,07,17,06,45,14.80
2009,07,17,06,46,14.80
2009,07,17,06,47,14.80
2009,07,17,06,48,14.80
2009,07,17,06,49,14.90
2009,07,17,06,50,14.90
2009,07,17,06,51,14.90
2009,07,17,06,52,15.00
2009,07,17,06,53,15.00
2009,07,17,06,54,15.10
2009,07,17,06,55,15.20
2009,07,17,06,56,15.20
2009,07,17,06,57,15.20
2009,07,17,06,58,15.30
2009,07,17,06,59,15.30
2009,07,17,07,00,15.30
2009,07,17,07,01,15.30
2009,07,17,07,02,15.40
2009,07,17,07,03,15.40
2009,07,17,07,04,15.50
2009,07,17,07,05,15.50
2009,07,17,07,06,15.50
2009,07,17,07,07,15.60
2009,07,17,07,08,15.60
2009,07,17,07,09,15.60
2009,07,17,07,10,15.70
2009,07,17,07,11,15.70
2009,07,17,07,12,15.70
2009,07,17,07,13,15.80
2009,07,17,07,14,15.80
2009,07,17,07,15,15.80
2009,07,17,07,16,15.90
2009,07,17,07,17,15.90
2009,07,17,07,18,16.00
2009,07,17,07,19,16.10
2009,07,17,07,20,16.10
2009,07,17,07,21,16.20
2009,07,17,07,22,16.20
2009,07,17,07,23,16.30
2009,07,17,07,24,16.30
2009,07,17,07,25,16.40
2009,07,17,07,26,16.40
2009,07,17,07,27,16.40
2009,07,17,07,28,16.50
2009,07,17,07,29,16.70
2009,07,17,07,30,16.70
2009,07,17,07,31,16.70
2009,07,17,07,32,16.90
2009,07,17,07,33,16.90
2009,07,17,07,34,17.00
2009,07,17,07,35,17.10
2009,07,17,07,36,17.20
2009,07,17,07,37,17.20
2009,07,17,07,38,17.30
2009,07,17,07,39,17.30
2009,07,17,07,40,17.40
2009,07,17,07,41,17.50
2009,07,17,07,42,17.50
2009,07,17,07,43,17.60
2009,07,17,07,44,17.70
2009,07,17,07,45,17.70
2009,07,17,07,46,17.80
2009,07,17,07,47,17.80
2009,07,17,07,48,17.90
2009,07,17,07,49,18.10
2009,07,17,07,50,18.20
2009,07,17,07,51,18.40
2009,07,17,07,52,18.50
2009,07,17,07,53,18.60
2009,07,17,07,54,18.70
2009,07,17,07,55,18.80
2009,07,17,07,56,18.90
2009,07,17,07,57,19.10
2009,07,17,07,58,19.30
2009,07,17,07,59,19.40
2009,07,17,08,00,19.60
2009,07,17,08,01,19.80
2009,07,17,08,02,19.90
2009,07,17,08,03,20.00
2009,07,17,08,04,20.20
2009,07,17,08,05,20.20
2009,07,17,08,06,20.20
2009,07,17,08,07,20.30
2009,07,17,08,08,20.40
2009,07,17,08,09,20.50
2009,07,17,08,10,20.50
2009,07,17,08,11,20.60
2009,07,17,08,12,20.70
2009,07,17,08,13,20.80
2009,07,17,08,14,20.80
2009,07,17,08,15,20.90
2009,07,17,08,16,21.00
2009,07,17,08,17,21.10
2009,07,17,08,18,21.20
2009,07,17,08,19,21.30
2009,07,17,08,20,21.40
2009,07,17,08,21,21.50
2009,07,17,08,22,21.60
2009,07,17,08,23,21.60
2009,07,17,08,24,21.70
2009,07,17,08,25,21.80
2009,07,17,08,26,21.80
2009,07,17,08,27,21.90
2009,07,17,08,28,22.00
2009,07,17,08,29,22.10
2009,07,17,08,30,22.20
2009,07,17,08,31,22.30
2009,07,17,08,32,22.30
2009,07,17,08,33,22.40
2009,07,17,08,34,22.50
2009,07,17,08,35,22.60
2009,07,17,08,36,22.80
2009,07,17,08,37,22.90
2009,07,17,08,38,22.90
2009,07,17,08,39,23.00
2009,07,17,08,40,23.10
2009,07,17,08,41,23.20
2009,07,17,08,42,23.30
2009,07,17,08,43,23.30
2009,07,17,08,44,23.40
2009,07,17,08,45,23.40
2009,07,17,08,46,23.40
2009,07,17,08,47,23.60
2009,07,17,08,48,23.60
2009,07,17,08,49,23.70
2009,07,17,08,50,23.70
2009,07,17,08,51,23.80
2009,07,17,08,52,23.90
2009,07,17,08,53,23.90
2009,07,17,08,54,24.00
2009,07,17,08,55,24.10
2009,07,17,08,56,24.10
2009,07,17,08,57,24.10
2009,07,17,08,58,24.10
2009,07,17,08,59,24.20
2009,07,17,09,00,24.20
2009,07,17,09,01,24.30
2009,07,17,09,02,24.30
2009,07,17,09,03,24.40
2009,07,17,09,04,24.40
2009,07,17,09,05,24.40
2009,07,17,09,06,24.40
2009,07,17,09,07,24.50
2009,07,17,09,08,24.50
2009,07,17,09,09,24.60
2009,07,17,09,10,24.60
2009,07,17,09,11,24.60
2009,07,17,09,12,24.70
2009,07,17,09,13,24.70
2009,07,17,09,14,24.70
2009,07,17,09,15,24.80
2009,07,17,09,16,24.80
2009,07,17,09,17,24.80
2009,07,17,09,18,24.90
2009,07,17,09,19,24.90
2009,07,17,09,20,24.90
2009,07,17,09,21,24.80
2009,07,17,09,22,24.80
2009,07,17,09,23,24.80
2009,07,17,09,24,24.80
2009,07,17,09,25,24.80
2009,07,17,09,26,24.80
2009,07,17,09,27,24.90
2009,07,17,09,28,24.90
2009,07,17,09,29,25.00
2009,07,17,09,30,25.10
2009,07,17,09,31,25.10
2009,07,17,09,32,25.10
2009,07,17,09,33,25.10
2009,07,17,09,34,25.20
2009,07,17,09,35,25.20
2009,07,17,09,36,25.20
2009,07,17,09,37,25.20
2009,07,17,09,38,25.20
2009,07,17,09,39,25.20
2009,07,17,09,40,25.20
2009,07,17,09,41,25.20
2009,07,17,09,42,25.20
2009,07,17,09,43,25.30
2009,07,17,09,44,25.20
2009,07,17,09,45,25.20
2009,07,17,09,46,25.10
2009,07,17,09,47,25.10
2009,07,17,09,48,25.10
2009,07,17,09,49,25.10
2009,07,17,09,50,25.10
2009,07,17,09,51,25.20
2009,07,17,09,52,25.10
2009,07,17,09,53,25.10
2009,07,17,09,54,25.10
2009,07,17,09,55,25.20
2009,07,17,09,56,25.30
2009,07,17,09,57,25.30
2009,07,17,09,58,25.40
2009,07,17,09,59,25.40
2009,07,17,10,00,25.30
2009,07,17,10,01,25.30
2009,07,17,10,02,25.30
2009,07,17,10,03,25.40
2009,07,17,10,04,25.40
2009,07,17,10,05,25.40
2009,07,17,10,06,25.50
2009,07,17,10,07,25.50
2009,07,17,10,08,25.40
2009,07,17,10,09,25.40
2009,07,17,10,10,25.50
2009,07,17,10,11,25.60
2009,07,17,10,12,25.70
2009,07,17,10,13,25.70
2009,07,17,10,14,25.80
2009,07,17,10,15,25.90
2009,07,17,10,16,25.90
2009,07,17,10,17,25.90
2009,07,17,10,18,25.90
2009,07,17,10,19,25.90
2009,07,17,10,20,25.90
2009,07,17,10,21,25.90
2009,07,17,10,22,25.90
2009,07,17,10,23,25.90
2009,07,17,10,24,25.90
2009,07,17,10,25,25.90
2009,07,17,10,26,26.00
2009,07,17,10,27,26.00
2009,07,17,10,28,26.10
2009,07,17,10,29,26.10
2009,07,17,10,30,26.10
2009,07,17,10,31,26.10
2009,07,17,10,32,26.10
2009,07,17,10,33,26.10
2009,07,17,10,34,26.10
2009,07,17,10,35,26.10
2009,07,17,10,36,26.10
2009,07,17,10,37,26.10
2009,07,17,10,38,26.20
2009,07,17,10,39,26.20
2009,07,17,10,40,26.10
2009,07,17,10,41,26.10
2009,07,17,10,42,26.10
2009,07,17,10,43,26.10
2009,07,17,10,44,26.10
2009,07,17,10,45,26.20
2009,07,17,10,46,26.30
2009,07,17,10,47,26.50
2009,07,17,10,48,26.60
2009,07,17,10,49,26.60
2009,07,17,10,50,26.60
2009,07,17,10,51,26.60
2009,07,17,10,52,26.60
2009,07,17,10,53,26.50
2009,07,17,10,54,26.40
2009,07,17,10,55,26.30
2009,07,17,10,56,26.30
2009,07,17,10,57,26.30
2009,07,17,10,58,26.30
2009,07,17,10,59,26.20
2009,07,17,11,00,26.30
2009,07,17,11,01,26.30
2009,07,17,11,02,26.20
2009,07,17,11,03,26.20
2009,07,17,11,04,26.20
2009,07,17,11,05,26.30
2009,07,17,11,06,26.40
2009,07,17,11,07,26.40
2009,07,17,11,08,26.50
2009,07,17,11,09,26.40
2009,07,17,11,10,26.40
2009,07,17,11,11,26.50
2009,07,17,11,12,26.60
2009,07,17,11,13,26.60
2009,07,17,11,14,26.60
2009,07,17,11,15,26.60
2009,07,17,11,16,26.60
2009,07,17,11,17,26.60
2009,07,17,11,18,26.80
2009,07,17,11,19,27.00
2009,07,17,11,20,27.10
2009,07,17,11,21,27.00
2009,07,17,11,22,26.90
2009,07,17,11,23,26.90
2009,07,17,11,24,26.90
2009,07,17,11,25,27.10
2009,07,17,11,26,27.10
2009,07,17,11,27,27.10
2009,07,17,11,28,27.20
2009,07,17,11,29,27.20
2009,07,17,11,30,27.20
2009,07,17,11,31,27.30
2009,07,17,11,32,27.30
2009,07,17,11,33,27.30
2009,07,17,11,34,27.40
2009,07,17,11,35,27.40
2009,07,17,11,36,27.50
2009,07,17,11,37,27.60
2009,07,17,11,38,27.60
2009,07,17,11,39,27.60
2009,07,17,11,40,27.70
2009,07,17,11,41,27.70
2009,07,17,11,42,27.70
2009,07,17,11,43,27.70
2009,07,17,11,44,27.70
2009,07,17,11,45,27.70
2009,07,17,11,46,27.60
2009,07,17,11,47,27.60
2009,07,17,11,48,27.60
2009,07,17,11,49,27.60
2009,07,17,11,50,27.50
2009,07,17,11,51,27.60
2009,07,17,11,52,27.60
2009,07,17,11,53,27.60
2009,07,17,11,54,27.60
2009,07,17,11,55,27.70
2009,07,17,11,56,27.70
2009,07,17,11,57,27.70
2009,07,17,11,58,27.70
2009,07,17,11,59,27.70
2009,07,17,12,00,27.70
2009,07,17,12,01,27.70
2009,07,17,12,02,27.70
2009,07,17,12,03,27.50
2009,07,17,12,04,27.30
2009,07,17,12,05,27.30
2009,07,17,12,06,27.30
2009,07,17,12,07,27.30
2009,07,17,12,08,27.30
2009,07,17,12,09,27.30
2009,07,17,12,10,27.30
2009,07,17,12,11,27.40
2009,07,17,12,12,27.60
2009,07,17,12,13,27.60
2009,07,17,12,14,27.60
2009,07,17,12,15,27.50
2009,07,17,12,16,27.50
2009,07,17,12,17,27.40
2009,07,17,12,18,27.40
2009,07,17,12,19,27.30
2009,07,17,12,20,27.30
2009,07,17,12,21,27.30
2009,07,17,12,22,27.30
2009,07,17,12,23,27.40
2009,07,17,12,24,27.40
2009,07,17,12,25,27.40
2009,07,17,12,26,27.30
2009,07,17,12,27,27.30
2009,07,17,12,28,27.30
2009,07,17,12,29,27.30
2009,07,17,12,30,27.30
2009,07,17,12,31,27.30
2009,07,17,12,32,27.30
2009,07,17,12,33,27.30
2009,07,17,12,34,27.30
2009,07,17,12,35,27.30
2009,07,17,12,36,27.40
2009,07,17,12,37,27.40
2009,07,17,12,38,27.50
2009,07,17,12,39,27.60
2009,07,17,12,40,27.60
2009,07,17,12,41,27.70
2009,07,17,12,42,27.70
2009,07,17,12,43,27.80
2009,07,17,12,44,27.80
2009,07,17,12,45,27.90
2009,07,17,12,46,27.90
2009,07,17,12,47,27.90
2009,07,17,12,48,28.00
2009,07,17,12,49,28.00
2009,07,17,12,50,28.00
2009,07,17,12,51,28.00
2009,07,17,12,52,28.00
2009,07,17,12,53,28.00
2009,07,17,12,54,28.00
2009,07,17,12,55,28.00
2009,07,17,12,56,27.90
2009,07,17,12,57,28.00
2009,07,17,12,58,28.10
2009,07,17,12,59,28.10
2009,07,17,13,00,28.20
2009,07,17,13,01,28.20
2009,07,17,13,02,28.20
2009,07,17,13,03,28.30
2009,07,17,13,04,28.30
2009,07,17,13,05,28.30
2009,07,17,13,06,28.20
2009,07,17,13,07,28.20
2009,07,17,13,08,28.20
2009,07,17,13,09,28.10
2009,07,17,13,10,28.20
2009,07,17,13,11,28.20
2009,07,17,13,12,28.20
2009,07,17,13,13,28.30
2009,07,17,13,14,28.30
2009,07,17,13,15,28.40
2009,07,17,13,16,28.40
2009,07,17,13,17,28.50
2009,07,17,13,18,28.60
2009,07,17,13,19,28.70
2009,07,17,13,20,28.90
2009,07,17,13,21,29.00
2009,07,17,13,22,29.10
2009,07,17,13,23,29.30
2009,07,17,13,24,29.40
2009,07,17,13,25,29.50
2009,07,17,13,26,29.60
2009,07,17,13,27,29.70
2009,07,17,13,28,29.80
2009,07,17,13,29,29.90
2009,07,17,13,30,30.00
2009,07,17,13,31,30.00
2009,07,17,13,32,29.90
2009,07,17,13,33,29.90
2009,07,17,13,34,29.80
2009,07,17,13,35,29.70
2009,07,17,13,36,29.70
2009,07,17,13,37,29.80
2009,07,17,13,38,29.80
2009,07,17,13,39,29.70
2009,07,17,13,40,29.70
2009,07,17,13,41,29.60
2009,07,17,13,42,29.60
2009,07,17,13,43,29.70
2009,07,17,13,44,29.70
2009,07,17,13,45,29.70
2009,07,17,13,46,29.70
2009,07,17,13,47,29.80
2009,07,17,13,48,29.80
2009,07,17,13,49,29.90
2009,07,17,13,50,30.00
2009,07,17,13,51,30.10
2009,07,17,13,52,30.20
2009,07,17,13,53,30.20
2009,07,17,13,54,30.20
2009,07,17,13,55,30.30
2009,07,17,13,56,30.30
2009,07,17,13,57,30.40
2009,07,17,13,58,30.50
2009,07,17,13,59,30.60
2009,07,17,14,00,30.50
2009,07,17,14,01,30.40
2009,07,17,14,02,30.40
2009,07,17,14,03,30.40
2009,07,17,14,04,30.40
2009,07,17,14,05,30.40
2009,07,17,14,06,30.60
2009,07,17,14,07,30.50
2009,07,17,14,08,30.40
2009,07,17,14,09,30.30
2009,07,17,14,10,30.30
2009,07,17,14,11,30.30
2009,07,17,14,12,30.30
2009,07,17,14,13,30.30
2009,07,17,14,14,30.20
2009,07,17,14,15,30.20
2009,07,17,14,16,30.10
2009,07,17,14,17,30.10
2009,07,17,14,18,30.20
2009,07,17,14,19,30.30
2009,07,17,14,20,30.40
2009,07,17,14,21,30.50
2009,07,17,14,22,30.60
2009,07,17,14,23,30.70
2009,07,17,14,24,30.60
2009,07,17,14,25,30.60
2009,07,17,14,26,30.60
2009,07,17,14,27,30.60
2009,07,17,14,28,30.50
2009,07,17,14,29,30.40
2009,07,17,14,30,30.40
2009,07,17,14,31,30.40
2009,07,17,14,32,30.40
2009,07,17,14,33,30.40
2009,07,17,14,34,30.40
2009,07,17,14,35,30.40
2009,07,17,14,36,30.60
2009,07,17,14,37,30.60
2009,07,17,14,38,30.60
2009,07,17,14,39,30.60
2009,07,17,14,40,30.60
2009,07,17,14,41,30.60
2009,07,17,14,42,30.60
2009,07,17,14,43,30.60
2009,07,17,14,44,30.70
2009,07,17,14,45,30.80
2009,07,17,14,46,30.90
2009,07,17,14,47,30.90
2009,07,17,14,48,31.00
2009,07,17,14,49,31.00
2009,07,17,14,50,30.90
2009,07,17,14,51,30.90
2009,07,17,14,52,30.80
2009,07,17,14,53,30.80
2009,07,17,14,54,30.80
2009,07,17,14,55,30.80
2009,07,17,14,56,30.80
2009,07,17,14,57,30.80
2009,07,17,14,58,30.90
2009,07,17,14,59,30.90
2009,07,17,15,00,30.90
2009,07,17,15,01,30.80
2009,07,17,15,02,30.80
2009,07,17,15,03,30.80
2009,07,17,15,04,30.80
2009,07,17,15,05,30.90
2009,07,17,15,06,31.00
2009,07,17,15,07,31.00
2009,07,17,15,08,31.00
2009,07,17,15,09,31.10
2009,07,17,15,10,31.10
2009,07,17,15,11,31.10
2009,07,17,15,12,31.20
2009,07,17,15,13,31.20
2009,07,17,15,14,31.20
2009,07,17,15,15,31.20
2009,07,17,15,16,31.00
2009,07,17,15,17,30.90
2009,07,17,15,18,30.90
2009,07,17,15,19,30.90
2009,07,17,15,20,30.80
2009,07,17,15,21,30.60
2009,07,17,15,22,30.60
2009,07,17,15,23,30.60
2009,07,17,15,24,30.60
2009,07,17,15,25,30.60
2009,07,17,15,26,30.70
2009,07,17,15,27,30.70
2009,07,17,15,28,30.70
2009,07,17,15,29,30.70
2009,07,17,15,30,30.70
2009,07,17,15,31,30.70
2009,07,17,15,32,30.60
2009,07,17,15,33,30.60
2009,07,17,15,34,30.60
2009,07,17,15,35,30.40
2009,07,17,15,36,30.40
2009,07,17,15,37,30.40
2009,07,17,15,38,30.40
2009,07,17,15,39,30.60
2009,07,17,15,40,30.60
2009,07,17,15,41,30.40
2009,07,17,15,42,30.30
2009,07,17,15,43,30.30
2009,07,17,15,44,30.40
2009,07,17,15,45,30.30
2009,07,17,15,46,30.30
2009,07,17,15,47,30.20
2009,07,17,15,48,30.10
2009,07,17,15,49,30.00
2009,07,17,15,50,29.90
2009,07,17,15,51,30.00
2009,07,17,15,52,30.10
2009,07,17,15,53,30.20
2009,07,17,15,54,30.30
2009,07,17,15,55,30.30
2009,07,17,15,56,30.30
2009,07,17,15,57,30.30
2009,07,17,15,58,30.30
2009,07,17,15,59,30.30
2009,07,17,16,00,30.30
2009,07,17,16,01,30.30
2009,07,17,16,02,30.30
2009,07,17,16,03,30.20
2009,07,17,16,04,30.20
2009,07,17,16,05,30.30
2009,07,17,16,06,30.30
2009,07,17,16,07,30.30
2009,07,17,16,08,30.20
2009,07,17,16,09,30.20
2009,07,17,16,10,30.20
2009,07,17,16,11,30.00
2009,07,17,16,12,29.90
2009,07,17,16,13,29.90
2009,07,17,16,14,29.90
2009,07,17,16,15,29.80
2009,07,17,16,16,29.70
2009,07,17,16,17,29.60
2009,07,17,16,18,29.60
2009,07,17,16,19,29.60
2009,07,17,16,20,29.60
2009,07,17,16,21,29.70
2009,07,17,16,22,29.70
2009,07,17,16,23,29.70
2009,07,17,16,24,29.70
2009,07,17,16,25,29.70
2009,07,17,16,26,29.70
2009,07,17,16,27,29.60
2009,07,17,16,28,29.60
2009,07,17,16,29,29.60
2009,07,17,16,30,29.60
2009,07,17,16,31,29.50
2009,07,17,16,32,29.50
2009,07,17,16,33,29.50
2009,07,17,16,34,29.50
2009,07,17,16,35,29.50
2009,07,17,16,36,29.40
2009,07,17,16,37,29.40
2009,07,17,16,38,29.30
2009,07,17,16,39,29.30
2009,07,17,16,40,29.30
2009,07,17,16,41,29.20
2009,07,17,16,42,29.20
2009,07,17,16,43,29.10
2009,07,17,16,44,29.10
2009,07,17,16,45,29.10
2009,07,17,16,46,29.10
2009,07,17,16,47,29.10
2009,07,17,16,48,29.10
2009,07,17,16,49,29.10
2009,07,17,16,50,29.10
2009,07,17,16,51,29.10
2009,07,17,16,52,29.00
2009,07,17,16,53,28.90
2009,07,17,16,54,28.90
2009,07,17,16,55,28.90
2009,07,17,16,56,28.90
2009,07,17,16,57,28.90
2009,07,17,16,58,28.90
2009,07,17,16,59,28.90
2009,07,17,17,00,28.90
2009,07,17,17,01,28.90
2009,07,17,17,02,28.90
2009,07,17,17,03,28.90
2009,07,17,17,04,28.80
2009,07,17,17,05,28.70
2009,07,17,17,06,28.70
2009,07,17,17,07,28.70
2009,07,17,17,08,28.60
2009,07,17,17,09,28.60
2009,07,17,17,10,28.60
2009,07,17,17,11,28.60
2009,07,17,17,12,28.60
2009,07,17,17,13,28.60
2009,07,17,17,14,28.60
2009,07,17,17,15,28.60
2009,07,17,17,16,28.60
2009,07,17,17,17,28.60
2009,07,17,17,18,28.60
2009,07,17,17,19,28.50